{"data":{"norad_id":49748,"intl_designator":"2021-115AA","name":"STARLINK-3248","alt_names":[],"object_type":"PAYLOAD","status":"ACTIVE","operator":null,"country":"US","launch_date":"2021-12-02","launch_site_code":"AFETR","launch_vehicle":null,"mission":null,"orbit_class":"UNKNOWN","rcs_meters":null,"size_class":null,"mass_kg":null,"dimensions":null,"purposes":["comms"],"wikipedia_slug":null,"has_3d_model":false,"image_url":null,"decayed_at":null,"tle_current":{"epoch":"2026-05-25T01:17:08.729664Z","epoch_age_seconds":60692,"freshness":"FRESH","line1":"1 49748U 21115AA  26145.05357326  .00000928  00000+0  76407-4 0  9997","line2":"2 49748  53.2140 165.8871 0001006  69.8394 290.2706 15.08835660247079","mean_motion":15.0883566,"eccentricity":0.0001006,"inclination_deg":53.214,"raan_deg":165.8871,"arg_perigee_deg":69.8394,"mean_anomaly_deg":290.2706,"bstar":7.6407e-5,"rev_number":24707,"period_min":95.437829193406,"perigee_km":539.060714538,"apogee_km":540.45259474131,"semimajor_km":6917.8936546397,"source":"CELESTRAK","updated_at":"2026-05-25T13:38:16.836376Z"}}}